Showing default

METEOR 2-7, 12456

Orbit data source: Space-Track

METEOR 2-7, 12456 is a Commonwealth of Independent States-origin payload satellite in LEO that was launched on Thu, 14 May 1981 UTC via a VOSTOK 8A92M launch vehicle from the Plesetsk Missile And Space Complex (PKMTR). Payload-class satellites include a variety of spacecraft equipped with specific instruments for various scientific and technological missions. These include communications satellites like Starlink; space stations such as the ISS; scientific satellites like the Hubble; Earth observation satellites from companies like Planet Labs, Umbra, and HawkEye 360; GPS; miniature CubeSats for education and research; and military/defense satellites.

Loading next visibility...
Identifier
12456, 1981-043A
Orbit
LEO
Country
Flag of CISCIS
Related business
Manufacturer
VNIIEM
Mission
Spacecraft
Bus & Motor
METEOR-2, Unknown motor
Mass
~1,500 kg wet, ~1,500 kg dry
Launch date (UTC)
1981-05-14 (44 years ago)
Launch vehicle
VOSTOK 8A92M
Launch site
Plesetsk Missile And Space Complex (PKMTR)
Object type
Payload
Rocket body
Debris
Shape & HBR
Unknown
Radar Cross Section
Large (>1 m²)

Expand to show TLE details & history
Last TLE update: 19 hours ago

TLE from 19 hours ago
0 METEOR 2-7
1 12456U 81043A   25310.46828226  .00000265  00000-0  13915-3 0  9998
2 12456  81.2642 315.6936 0048356  43.6031 316.8945 14.10987286287648
Epoch: 2025-11-06T11:14Z
TLE epoch observation values (Epoch: 2025-11-06T11:14:19.587Z)
Latitude
-0.00006°
Longitude
101.18581°
Altitude
833.431 km
Speed
7.449 km/s
True Right ascension
21h 02m 46s
True Declination
0° 00' 00"
Sunlit
Object was in daylight at epoch
Visualization orbit readout
Latitude
Unknown
Longitude
Unknown
Altitude
Unknown
Speed
Unknown
Apparent Right ascension
Unknown
Apparent Declination
Unknown
Sunlit
N/A
Visualization observer readout
Local Sidereal Time
02:16:12
Azimuth
Unknown
Elevation
Unknown
Doppler factor
Unknown
Orbital elements
Apogee altitude
888.135 km
Perigee altitude
818.199 km
Semi-major axis
7,231.304 km
Eccentricity
0.00484
Inclination
81.2642°
RAAN
315.6936°
Arg. of periapsis
43.6031°
True anomaly
316.51417°
Mean anomaly
316.8945°
Eccentric anomaly
316.7045°
Mean motion
3.52954 °/min
Orbital period
102 mins
BSTAR
0.00013915
Loading maneuver chart data...
Computing Atmospheric mass density...

Documentation

Showing up to 5 results
|